FENGYUN 1C DEB

Satellite information

Favourite Embed

Satellite Type and Status

DEBRISIN ORBIT

Key statistics

Satellite FENGYUN 1C DEB at a glance.

Uptime

9659

Days in orbit

Revolutions

≈ 14.7

Per day

Orbit

SSO

Sun Synchronous Orbit

Inclination

98.8

Latest

Satellite identification and parameters

Extended collection of information and parameters for FENGYUN 1C DEB.

Object identification

Identified? True

Debris? True

Object name: FENGYUN 1C DEB

International designator: 1999-025EPC

Object number (NORAD): 37927

Object ID (CCSDS): 37927

Country: PEOPLES REPUBLIC OF CHINA (PRC)

Current information (Y/N): Y

RCS size: SMALL

Orbital parameters

Period: 98.106 minutes

Inclination: 98.8082 deg

SMA: 7046.224 km

Apoapsis: 672.461 km

Periapsis: 663.718 km

RAAN: 68.2945 deg

Eccentricy: 0.00062041

Argument of periapsis: 102.785 deg

Mean anomaly: 257.4046 deg

Mean motion: 14.67803969 rev/day

Mean motion (dot): 0.00024768 rev/day2

B* drag term: 0.0043340336 1/REarth

Two-line elements (TLE)

Creation date: Oct. 16, 2025, 6:34 p.m.

Reference frame: TEME

Reference center: EARTH

Epoch: Oct. 16, 2025, 3:17 a.m. UTC

TLE line 0: 0 FENGYUN 1C DEB

TLE line 1: 1 37927U 99025EPC 25289.13708172 .00024768 00000-0 43340-2 0 9991

TLE line 2: 2 37927 98.8082 68.2945 0006204 102.7850 257.4046 14.67803969642704

Live tracking on map

Real-time ground track for satellite FENGYUN 1C DEB.

In-orbit conjunctions

A list of the most updated potential collisions computed for object FENGYUN 1C DEB.

Target Orbit TCA Probability of collision Miss distance Type
TOMS EP SSO 2025-07-01 21:52:45 0.0001577599 536.0 (m) PAYLOAD
FENGYUN 1C DEB SSO 2024-11-13 11:59:44 0.0009882699 125.0 (m) DEBRIS
SL-8 DEB * LEO 2024-11-02 09:35:52 0.0001167868 74.0 (m) DEBRIS

Associated space launch

Chinese polar orbiting meteorological satellite

FENGYUN 1C DEB was lifted into orbit during the mission ‘Long March 4B | Feng Yun 1C’, on board a Long March 4B space rocket.

The launch took place on May 10, 1999, 1:33 a.m. from Launch Complex 7.

For more information about the launch, click the button.

Launch to space Long March 4B | Feng Yun 1C
Long March 4B | Feng Yun 1C

Agency: N/A

Status: Launch Successful

Launch date: May 10, 1999, 1:33 a.m. UTC

Rocket: Long March 4B

Launch pad: Launch Complex 7

Location: Taiyuan Satellite Launch Center, People's Republic of China

...

Latest news about this satellite

There are no fresh news available about this satellite. Check back as we update our databases every day.


Newsletter sign-up

Weekly statistics, charts and insights to help you stay on top of the space industry.